Location: Newark
(43.4306°N, 0.3089°E)
Time: 13:34:58
(UTC+00:00)

ISS - Visible Passes

Search period start: 18 July 2019 00:00
Search period end: 28 July 2019 00:00
Orbit: 409 x 418 km, 51.6° (Epoch: 18 July)

Date Brightness Start Highest point End Pass type
(mag) Time Alt. Az. Time Alt. Az. Time Alt. Az.
18 Jul -1.3 01:06:21 10° NW 01:09:04 23° NNE 01:11:49 10° ENE visible
18 Jul -3.7 02:42:50 10° NW 02:46:10 77° NNE 02:49:28 10° ESE visible
18 Jul -3.8 21:01:44 10° WSW 21:05:04 85° NW 21:08:25 10° ENE visible
18 Jul -1.3 22:39:19 10° WNW 22:42:06 24° NNW 22:44:54 10° NE visible
19 Jul -1.1 00:16:59 10° NW 00:19:34 20° N 00:22:09 10° ENE visible
19 Jul -2.8 01:53:34 10° NW 01:56:49 48° NNE 02:00:02 10° ESE visible
19 Jul -2.7 03:30:35 10° W 03:33:20 24° SW 03:36:03 10° SSE visible
19 Jul -3.7 20:12:30 10° SW 20:15:46 56° SE 20:19:04 10° ENE visible
19 Jul -1.7 21:49:38 10° W 21:52:38 30° NNW 21:55:37 10° NE visible
19 Jul -1.0 23:27:32 10° NW 23:30:02 19° N 23:32:33 10° NE visible
20 Jul -2.1 01:04:19 10° NW 01:07:24 34° NNE 01:09:03 21° ENE visible
20 Jul -2.3 02:40:59 10° WNW 02:45:51 22° SSE 02:47:16 10° SSE visible
20 Jul -2.3 21:00:01 10° W 21:03:11 40° NNW 21:06:22 10° NE visible
20 Jul -1.0 22:37:57 10° NW 22:40:29 20° N 22:43:02 10° NE visible
21 Jul -1.6 00:15:02 10° NW 00:17:56 26° NNE 00:17:58 26° NNE visible
21 Jul -3.1 20:10:27 10° WSW 20:13:46 60° NNW 20:17:05 10° NE visible
21 Jul -1.1 21:48:17 10° WNW 21:50:57 22° N 21:53:36 10° NE visible
21 Jul -1.3 23:25:43 10° NW 23:28:24 22° N 23:29:21 20° NE visible
22 Jul -1.4 20:58:33 10° WNW 21:01:24 25° NNW 21:04:15 10° NE visible
22 Jul -1.1 22:36:18 10° NW 22:38:51 20° N 22:41:06 12° NE visible
23 Jul -1.1 00:12:55 10° NW 00:13:53 17° NW 00:13:53 17° NW visible
23 Jul -1.8 20:08:50 10° W 20:11:53 32° NNW 20:14:57 10° NE visible
23 Jul -1.1 21:46:45 10° NW 21:49:17 19° N 21:51:47 10° NE visible
23 Jul -1.6 23:23:38 10° NW 23:25:49 27° N 23:25:49 27° N visible
24 Jul -1.1 20:57:06 10° NW 20:59:41 20° N 21:02:15 10° NE visible
24 Jul -1.7 22:34:18 10° NW 22:37:09 25° NNE 22:37:50 23° NE visible
25 Jul -1.3 20:07:22 10° WNW 20:10:05 22° N 20:12:48 10° NE visible
25 Jul -1.4 21:44:54 10° NW 21:47:34 21° N 21:49:53 12° ENE visible
25 Jul -1.3 23:21:26 10° NW 23:22:41 21° NW 23:22:41 21° NW visible
26 Jul -1.3 20:55:25 10° NW 20:57:58 20° N 21:00:30 10° NE visible
26 Jul -2.3 22:32:06 10° NW 22:34:47 37° N 22:34:47 37° N visible
27 Jul -1.2 20:05:48 10° NW 20:08:19 19° N 20:10:52 10° NE visible
27 Jul -2.1 21:42:45 10° NW 21:45:44 29° NNE 21:46:55 23° NE visible
27 Jul -0.8 23:19:18 10° WNW 23:19:43 13° WNW 23:19:43 13° WNW visible
